AFR535 LMML-GMMN

Flight info

Callsign AFR535
Flight time 3h 2m
Altitude 40000
Route GZO DCT DOBIX DCT SONAK DCT TUC DCT KEMIR UA411 DAHRA/N0489F430 UA411 FES/N0489F410 DCT SADIC
Aircraft A359/H-SDE2E3GHIJ3J4J5LM1ORWXY/LB1D1

Departure

Time 2026-05-06 18:08
Airport Malta International Airport (LMML)

Arrival

Time 2026-05-06 21:10
Airport Mohammed V International Airport (GMMN)
Time Latitude Longitude Altitude Speed Heading
2026-05-06 17:25 35.84845 14.49455 265 ft 0 kts 360°
2026-05-06 17:30 35.84844 14.49455 265 ft 0 kts 360°
2026-05-06 17:39 35.84843 14.49455 265 ft 0 kts 360°
2026-05-06 17:48 35.84842 14.49455 265 ft 0 kts 360°
2026-05-06 17:56 35.84841 14.49455 292 ft 0 kts 360°
2026-05-06 17:58 35.84830 14.49456 265 ft 4 kts 354°
2026-05-06 17:59 35.84804 14.49464 269 ft 4 kts 334°
2026-05-06 17:59 35.84785 14.49476 269 ft 0 kts 336°
2026-05-06 18:03 35.84827 14.49397 265 ft 21 kts 290°
2026-05-06 18:03 35.84914 14.49250 265 ft 22 kts 296°
2026-05-06 18:04 35.84919 14.49091 265 ft 18 kts 301°
2026-05-06 18:04 35.84989 14.48943 265 ft 21 kts 302°
2026-05-06 18:04 35.85078 14.48786 269 ft 23 kts 306°
2026-05-06 18:04 35.85191 14.48657 276 ft 22 kts 333°
2026-05-06 18:05 35.85332 14.48564 278 ft 24 kts 324°
2026-05-06 18:05 35.85462 14.48414 278 ft 27 kts 316°
2026-05-06 18:05 35.85607 14.48242 278 ft 30 kts 316°
2026-05-06 18:05 35.85660 14.48036 278 ft 20 kts 279°
2026-05-06 18:06 35.85670 14.47989 278 ft 0 kts 277°
2026-05-06 18:06 35.85669 14.47985 278 ft 1 kts 270°
2026-05-06 18:07 35.85656 14.47958 278 ft 7 kts 229°
2026-05-06 18:07 35.85590 14.47954 278 ft 13 kts 146°
2026-05-06 18:07 35.85361 14.48227 278 ft 97 kts 134°
2026-05-06 18:07 35.84636 14.49088 419 ft 181 kts 130°
2026-05-06 18:08 35.83519 14.50001 1411 ft 205 kts 158°
2026-05-06 18:08 35.82052 14.49841 2688 ft 220 kts 195°
2026-05-06 18:08 35.80786 14.48662 3356 ft 240 kts 219°
2026-05-06 18:08 35.79610 14.47101 3811 ft 256 kts 220°
2026-05-06 18:09 35.78515 14.45329 4390 ft 270 kts 234°
2026-05-06 18:09 35.77919 14.43101 5100 ft 281 kts 259°
2026-05-06 18:09 35.78183 14.40692 5794 ft 293 kts 287°
2026-05-06 18:09 35.79394 14.38643 6486 ft 303 kts 319°
2026-05-06 18:10 35.81143 14.37216 7239 ft 301 kts 328°
2026-05-06 18:10 35.82953 14.35926 7953 ft 301 kts 326°
2026-05-06 18:10 35.84792 14.34603 8445 ft 310 kts 325°
2026-05-06 18:10 35.86640 14.33252 9204 ft 306 kts 326°
2026-05-06 18:11 35.88452 14.31922 9989 ft 304 kts 325°
2026-05-06 18:11 35.89668 14.31020 10253 ft 312 kts 325°
2026-05-06 18:11 35.92234 14.29107 10583 ft 333 kts 324°
2026-05-06 18:11 35.94257 14.27597 10798 ft 347 kts 324°
2026-05-06 18:12 35.96365 14.26024 11043 ft 359 kts 324°
2026-05-06 18:12 35.98501 14.24432 11423 ft 365 kts 324°
2026-05-06 18:12 36.00628 14.22711 11939 ft 364 kts 318°
2026-05-06 18:12 36.02482 14.20613 12427 ft 361 kts 307°
2026-05-06 18:13 36.03938 14.18116 12905 ft 357 kts 294°
2026-05-06 18:13 36.04949 14.15351 13469 ft 351 kts 285°
2026-05-06 18:13 36.05726 14.12501 14010 ft 349 kts 282°
2026-05-06 18:13 36.06406 14.09619 14468 ft 350 kts 281°
2026-05-06 18:14 36.07048 14.06703 14907 ft 352 kts 280°
2026-05-06 18:14 36.07682 14.03781 15375 ft 353 kts 280°
2026-05-06 18:14 36.08327 14.00842 15855 ft 354 kts 281°
2026-05-06 18:14 36.08985 13.97897 16354 ft 356 kts 281°
2026-05-06 18:15 36.09654 13.94945 16816 ft 357 kts 281°
2026-05-06 18:15 36.10332 13.91980 17274 ft 359 kts 282°
2026-05-06 18:15 36.10785 13.90009 17593 ft 360 kts 282°
2026-05-06 18:15 36.11472 13.87020 18061 ft 362 kts 282°
2026-05-06 18:16 36.12163 13.84016 18500 ft 364 kts 281°
2026-05-06 18:16 36.12858 13.80992 18840 ft 368 kts 282°
2026-05-06 18:16 36.13786 13.76929 19288 ft 372 kts 282°
2026-05-06 18:16 36.14261 13.74850 19527 ft 374 kts 282°
2026-05-06 18:17 36.14970 13.71736 19886 ft 377 kts 282°
2026-05-06 18:17 36.15684 13.68603 20235 ft 380 kts 282°
2026-05-06 18:17 36.16402 13.65446 20582 ft 383 kts 282°
2026-05-06 18:17 36.17124 13.62267 20919 ft 385 kts 282°
2026-05-06 18:18 36.17853 13.59053 21260 ft 388 kts 282°
2026-05-06 18:18 36.18585 13.55824 21598 ft 391 kts 282°
2026-05-06 18:18 36.19320 13.52579 21970 ft 393 kts 282°
2026-05-06 18:18 36.20057 13.49314 22329 ft 395 kts 283°
2026-05-06 18:19 36.20789 13.46070 22664 ft 397 kts 283°
2026-05-06 18:19 36.21531 13.42779 23077 ft 397 kts 283°
2026-05-06 18:19 36.22277 13.39461 23296 ft 403 kts 283°
2026-05-06 18:19 36.23032 13.36101 23563 ft 405 kts 283°
2026-05-06 18:20 36.23785 13.32752 24040 ft 401 kts 283°
2026-05-06 18:20 36.24532 13.29420 24365 ft 403 kts 284°
2026-05-06 18:20 36.25283 13.26072 24696 ft 404 kts 283°
2026-05-06 18:20 36.26041 13.22687 24854 ft 410 kts 283°
2026-05-06 18:21 36.26800 13.19278 25163 ft 411 kts 283°
2026-05-06 18:21 36.27558 13.15868 25574 ft 410 kts 283°
2026-05-06 18:21 36.28315 13.12461 25958 ft 410 kts 284°
2026-05-06 18:21 36.29070 13.09061 26471 ft 407 kts 284°
2026-05-06 18:22 36.29809 13.05726 26921 ft 406 kts 284°
2026-05-06 18:22 36.30556 13.02352 27353 ft 406 kts 284°
2026-05-06 18:22 36.31302 12.98976 27801 ft 406 kts 284°
2026-05-06 18:22 36.32058 12.95550 28266 ft 406 kts 284°
2026-05-06 18:23 36.32795 12.92208 28727 ft 406 kts 284°
2026-05-06 18:23 36.33539 12.88825 29203 ft 407 kts 284°
2026-05-06 18:23 36.34285 12.85431 29682 ft 407 kts 284°
2026-05-06 18:23 36.35029 12.82042 30142 ft 407 kts 284°
2026-05-06 18:24 36.35771 12.78654 30586 ft 407 kts 284°
2026-05-06 18:24 36.36512 12.75269 31134 ft 404 kts 284°
2026-05-06 18:24 36.37242 12.71928 31775 ft 399 kts 284°
2026-05-06 18:24 36.37967 12.68608 32242 ft 399 kts 284°
2026-05-06 18:25 36.38693 12.65274 32608 ft 400 kts 284°
2026-05-06 18:25 36.39420 12.61929 32977 ft 401 kts 284°
2026-05-06 18:25 36.40136 12.58629 33345 ft 402 kts 284°
2026-05-06 18:25 36.40862 12.55281 33780 ft 400 kts 284°
2026-05-06 18:26 36.41582 12.51960 34292 ft 396 kts 283°
2026-05-06 18:26 36.42298 12.48652 34664 ft 396 kts 283°
2026-05-06 18:26 36.43012 12.45343 34993 ft 397 kts 283°
2026-05-06 18:26 36.43723 12.42042 35343 ft 396 kts 283°
2026-05-06 18:27 36.44436 12.38732 35706 ft 396 kts 283°
2026-05-06 18:27 36.45148 12.35419 36045 ft 397 kts 283°
2026-05-06 18:27 36.45859 12.32107 36402 ft 397 kts 283°
2026-05-06 18:27 36.46569 12.28796 36768 ft 396 kts 282°
2026-05-06 18:28 36.47277 12.25486 37138 ft 396 kts 282°
2026-05-06 18:28 36.47983 12.22183 37508 ft 395 kts 282°
2026-05-06 18:28 36.48689 12.18876 37869 ft 395 kts 282°
2026-05-06 18:28 36.49385 12.15610 38214 ft 395 kts 282°
2026-05-06 18:29 36.50086 12.12318 38544 ft 394 kts 282°
2026-05-06 18:29 36.50771 12.09013 38807 ft 394 kts 281°
2026-05-06 18:29 36.51418 12.05694 39023 ft 395 kts 281°
2026-05-06 18:29 36.52050 12.02360 39240 ft 396 kts 281°
2026-05-06 18:30 36.52679 11.99019 39427 ft 398 kts 281°
2026-05-06 18:30 36.53312 11.95666 39655 ft 399 kts 281°
2026-05-06 18:30 36.53950 11.92309 39835 ft 400 kts 281°
2026-05-06 18:30 36.54593 11.88940 39870 ft 400 kts 281°
2026-05-06 18:31 36.55883 11.82211 39870 ft 400 kts 281°
2026-05-06 18:31 36.57173 11.75473 39873 ft 400 kts 281°
2026-05-06 18:32 36.58451 11.68769 39875 ft 400 kts 281°
2026-05-06 18:32 36.59731 11.62032 39873 ft 399 kts 280°
2026-05-06 18:33 36.61004 11.55308 39878 ft 399 kts 280°
2026-05-06 18:33 36.62271 11.48592 39878 ft 399 kts 280°
2026-05-06 18:34 36.63534 11.41867 39884 ft 399 kts 280°
2026-05-06 18:34 36.64791 11.35147 39884 ft 398 kts 280°
2026-05-06 18:35 36.66038 11.28460 39897 ft 398 kts 280°
2026-05-06 18:35 36.67288 11.21731 39883 ft 399 kts 280°
2026-05-06 18:36 36.68536 11.14993 39883 ft 399 kts 280°
2026-05-06 18:36 36.69780 11.08259 39882 ft 399 kts 280°
2026-05-06 18:37 36.71019 11.01523 39889 ft 398 kts 280°
2026-05-06 18:37 36.72255 10.94785 39890 ft 398 kts 280°
2026-05-06 18:38 36.73477 10.88100 39886 ft 398 kts 279°
2026-05-06 18:38 36.74705 10.81359 39898 ft 399 kts 279°
2026-05-06 18:39 36.75932 10.74599 39896 ft 400 kts 279°
2026-05-06 18:40 36.77766 10.64448 39899 ft 400 kts 279°
2026-05-06 18:40 36.78984 10.57687 39899 ft 399 kts 280°
2026-05-06 18:41 36.80195 10.50934 39901 ft 399 kts 279°
2026-05-06 18:41 36.81404 10.44168 39903 ft 399 kts 279°
2026-05-06 18:42 36.82610 10.37400 39904 ft 399 kts 279°
2026-05-06 18:42 36.83806 10.30662 39911 ft 399 kts 279°
2026-05-06 18:43 36.84875 10.23874 39910 ft 397 kts 274°
2026-05-06 18:43 36.85068 10.17002 39914 ft 396 kts 269°
2026-05-06 18:44 36.84990 10.10117 39904 ft 396 kts 268°
2026-05-06 18:44 36.84864 10.03229 39903 ft 396 kts 268°
2026-05-06 18:45 36.84743 9.96391 39916 ft 396 kts 268°
2026-05-06 18:45 36.84629 9.89509 39904 ft 396 kts 268°
2026-05-06 18:46 36.84513 9.82629 39913 ft 396 kts 268°
2026-05-06 18:46 36.84395 9.75752 39901 ft 395 kts 268°
2026-05-06 18:47 36.84272 9.68895 39909 ft 395 kts 268°
2026-05-06 18:47 36.84146 9.62087 39908 ft 394 kts 267°
2026-05-06 18:48 36.84015 9.55251 39911 ft 393 kts 267°
2026-05-06 18:48 36.83881 9.48425 39912 ft 393 kts 267°
2026-05-06 18:49 36.83743 9.41616 39915 ft 392 kts 267°
2026-05-06 18:49 36.83597 9.34827 39914 ft 390 kts 267°
2026-05-06 18:50 36.83449 9.28053 39922 ft 390 kts 267°
2026-05-06 18:50 36.83298 9.21319 39913 ft 390 kts 267°
2026-05-06 18:51 36.83142 9.14540 39902 ft 390 kts 266°
2026-05-06 18:51 36.82982 9.07763 39918 ft 391 kts 266°
2026-05-06 18:52 36.82814 9.00996 39910 ft 390 kts 266°
2026-05-06 18:52 36.82684 8.94220 39910 ft 390 kts 268°
2026-05-06 18:53 36.82853 8.87450 39907 ft 390 kts 270°
2026-05-06 18:53 36.83082 8.80675 39910 ft 390 kts 269°
2026-05-06 18:54 36.83258 8.73929 39900 ft 390 kts 269°
2026-05-06 18:54 36.83408 8.67150 39920 ft 390 kts 269°
2026-05-06 18:55 36.83513 8.60390 39930 ft 389 kts 268°
2026-05-06 18:55 36.83494 8.53669 39921 ft 388 kts 267°
2026-05-06 18:56 36.83463 8.46930 39932 ft 388 kts 267°
2026-05-06 18:56 36.83447 8.40183 39928 ft 388 kts 267°
2026-05-06 18:57 36.83438 8.33446 39936 ft 388 kts 267°
2026-05-06 18:57 36.83428 8.26703 39925 ft 388 kts 267°
2026-05-06 18:58 36.83412 8.19961 39926 ft 388 kts 267°
2026-05-06 18:58 36.83385 8.13220 39924 ft 388 kts 267°
2026-05-06 18:59 36.83356 8.06488 39919 ft 388 kts 267°
2026-05-06 18:59 36.83327 7.99795 39919 ft 388 kts 267°
2026-05-06 19:00 36.83296 7.93051 39913 ft 389 kts 267°
2026-05-06 19:00 36.83261 7.86280 39911 ft 390 kts 267°
2026-05-06 19:01 36.83220 7.79505 39911 ft 390 kts 266°
2026-05-06 19:01 36.83152 7.72726 39911 ft 390 kts 266°
2026-05-06 19:02 36.83074 7.65990 39913 ft 390 kts 266°
2026-05-06 19:02 36.82994 7.59216 39927 ft 390 kts 266°
2026-05-06 19:03 36.82912 7.52443 39915 ft 390 kts 266°
2026-05-06 19:03 36.82832 7.45676 39930 ft 390 kts 267°
2026-05-06 19:04 36.82753 7.38907 39934 ft 390 kts 267°
2026-05-06 19:04 36.82684 7.33280 39935 ft 390 kts 267°
2026-05-06 19:05 36.82580 7.25412 39926 ft 390 kts 266°
2026-05-06 19:05 36.82498 7.19779 39930 ft 390 kts 266°
2026-05-06 19:06 36.82394 7.13009 39928 ft 390 kts 266°
2026-05-06 19:06 36.82285 7.06246 39923 ft 389 kts 266°
2026-05-06 19:07 36.82169 6.99488 39927 ft 389 kts 266°
2026-05-06 19:07 36.82057 6.92713 39918 ft 390 kts 266°
2026-05-06 19:08 36.81940 6.85942 39920 ft 390 kts 266°
2026-05-06 19:08 36.81819 6.79182 39919 ft 389 kts 266°
2026-05-06 19:09 36.81694 6.72443 39930 ft 388 kts 266°
2026-05-06 19:09 36.81563 6.65757 39930 ft 388 kts 266°
2026-05-06 19:10 36.81430 6.59033 39925 ft 388 kts 266°
2026-05-06 19:10 36.81293 6.52299 39882 ft 388 kts 266°
2026-05-06 19:11 36.81151 6.45559 39934 ft 388 kts 266°
2026-05-06 19:11 36.81006 6.38830 39919 ft 387 kts 266°
2026-05-06 19:12 36.80858 6.32113 39915 ft 387 kts 266°
2026-05-06 19:12 36.80707 6.25430 39919 ft 388 kts 266°
2026-05-06 19:13 36.80549 6.18654 39919 ft 388 kts 266°
2026-05-06 19:13 36.80391 6.11970 39921 ft 387 kts 266°
2026-05-06 19:14 36.80228 6.05237 39918 ft 388 kts 266°
2026-05-06 19:14 36.80061 5.98509 39907 ft 387 kts 266°
2026-05-06 19:15 36.79888 5.91786 39906 ft 387 kts 266°
2026-05-06 19:15 36.79517 5.85133 39910 ft 386 kts 262°
2026-05-06 19:16 36.78886 5.78477 39916 ft 387 kts 262°
2026-05-06 19:16 36.78212 5.71812 39940 ft 387 kts 261°
2026-05-06 19:17 36.77531 5.65145 39932 ft 387 kts 261°
2026-05-06 19:17 36.76857 5.58535 39925 ft 386 kts 261°
2026-05-06 19:18 36.76178 5.51887 39925 ft 386 kts 261°
2026-05-06 19:18 36.75494 5.45237 39928 ft 386 kts 261°
2026-05-06 19:19 36.74808 5.38593 39930 ft 386 kts 261°
2026-05-06 19:19 36.74118 5.31948 39950 ft 386 kts 261°
2026-05-06 19:20 36.73424 5.25309 39937 ft 386 kts 261°
2026-05-06 19:20 36.72726 5.18660 39938 ft 387 kts 261°
2026-05-06 19:21 36.72028 5.12054 39936 ft 386 kts 261°
2026-05-06 19:21 36.71347 5.05403 39941 ft 387 kts 263°
2026-05-06 19:22 36.71063 4.98699 39938 ft 388 kts 266°
2026-05-06 19:22 36.70916 4.91978 39941 ft 387 kts 265°
2026-05-06 19:23 36.70708 4.85259 39940 ft 388 kts 265°
2026-05-06 19:23 36.70454 4.78539 39941 ft 388 kts 265°
2026-05-06 19:24 36.70187 4.71825 39939 ft 388 kts 264°
2026-05-06 19:24 36.69915 4.65122 39943 ft 387 kts 265°
2026-05-06 19:25 36.69639 4.58470 39935 ft 387 kts 264°
2026-05-06 19:25 36.69362 4.51757 39934 ft 388 kts 264°
2026-05-06 19:26 36.69083 4.45033 39939 ft 388 kts 264°
2026-05-06 19:26 36.68799 4.38307 39934 ft 389 kts 264°
2026-05-06 19:27 36.68511 4.31615 39935 ft 389 kts 264°
2026-05-06 19:27 36.68214 4.24885 39936 ft 389 kts 264°
2026-05-06 19:28 36.67913 4.18144 39942 ft 389 kts 264°
2026-05-06 19:28 36.67612 4.11389 39905 ft 392 kts 264°
2026-05-06 19:29 36.67307 4.04612 39935 ft 390 kts 264°
2026-05-06 19:29 36.67006 3.97927 39932 ft 389 kts 264°
2026-05-06 19:30 36.66693 3.91205 39936 ft 389 kts 264°
2026-05-06 19:30 36.66377 3.84495 39932 ft 387 kts 264°
2026-05-06 19:31 36.66057 3.77790 39941 ft 389 kts 264°
2026-05-06 19:31 36.65566 3.67655 39934 ft 391 kts 264°
2026-05-06 19:32 36.65273 3.60936 39937 ft 391 kts 266°
2026-05-06 19:32 36.65680 3.54144 39937 ft 394 kts 272°
2026-05-06 19:33 36.66374 3.47354 39936 ft 395 kts 273°
2026-05-06 19:33 36.67108 3.40602 39938 ft 396 kts 273°
2026-05-06 19:34 36.67839 3.33798 39939 ft 396 kts 273°
2026-05-06 19:34 36.68554 3.27001 39939 ft 396 kts 273°
2026-05-06 19:35 36.68905 3.20189 39938 ft 391 kts 265°
2026-05-06 19:35 36.68474 3.13442 39939 ft 390 kts 262°
2026-05-06 19:36 36.67903 3.06711 39938 ft 390 kts 262°
2026-05-06 19:36 36.67316 3.00031 39939 ft 390 kts 262°
2026-05-06 19:37 36.66732 2.93304 39938 ft 391 kts 262°
2026-05-06 19:37 36.66250 2.87703 39937 ft 391 kts 262°
2026-05-06 19:38 36.65571 2.79839 39935 ft 391 kts 262°
2026-05-06 19:38 36.64986 2.73118 39936 ft 390 kts 262°
2026-05-06 19:39 36.64400 2.66439 39955 ft 391 kts 262°
2026-05-06 19:39 36.63803 2.59688 39934 ft 393 kts 262°
2026-05-06 19:40 36.63200 2.52899 39939 ft 394 kts 262°
2026-05-06 19:40 36.62595 2.46127 39939 ft 394 kts 262°
2026-05-06 19:41 36.61985 2.39353 39921 ft 393 kts 262°
2026-05-06 19:41 36.61370 2.32568 39934 ft 394 kts 262°
2026-05-06 19:42 36.60758 2.25834 39933 ft 394 kts 261°
2026-05-06 19:42 36.59842 2.19127 39941 ft 392 kts 254°
2026-05-06 19:43 36.57976 2.12757 39946 ft 392 kts 249°
2026-05-06 19:43 36.55868 2.06485 39928 ft 393 kts 248°
2026-05-06 19:44 36.53720 2.00227 39929 ft 393 kts 248°
2026-05-06 19:44 36.51578 1.93959 39926 ft 393 kts 248°
2026-05-06 19:45 36.49463 1.87742 39930 ft 393 kts 248°
2026-05-06 19:45 36.47331 1.81467 39925 ft 392 kts 248°
2026-05-06 19:46 36.45207 1.75243 39931 ft 389 kts 248°
2026-05-06 19:46 36.43100 1.69090 39928 ft 389 kts 248°
2026-05-06 19:47 36.40975 1.62902 39921 ft 389 kts 248°
2026-05-06 19:47 36.38855 1.56721 39916 ft 389 kts 248°
2026-05-06 19:48 36.36725 1.50532 40052 ft 392 kts 248°
2026-05-06 19:48 36.35658 1.47410 40221 ft 394 kts 248°
2026-05-06 19:48 36.34604 1.44270 40444 ft 394 kts 248°
2026-05-06 19:49 36.33552 1.41119 40652 ft 396 kts 248°
2026-05-06 19:49 36.32494 1.37950 40814 ft 398 kts 248°
2026-05-06 19:49 36.31433 1.34776 41004 ft 399 kts 248°
2026-05-06 19:49 36.30369 1.31599 41167 ft 400 kts 248°
2026-05-06 19:50 36.29296 1.28408 41387 ft 401 kts 248°
2026-05-06 19:50 36.28231 1.25244 41551 ft 403 kts 248°
2026-05-06 19:50 36.27146 1.22033 41745 ft 404 kts 248°
2026-05-06 19:50 36.26057 1.18811 41907 ft 405 kts 248°
2026-05-06 19:51 36.24962 1.15576 42064 ft 407 kts 248°
2026-05-06 19:51 36.23868 1.12344 42221 ft 408 kts 248°
2026-05-06 19:51 36.22768 1.09102 42484 ft 407 kts 248°
2026-05-06 19:51 36.21670 1.05867 42634 ft 408 kts 247°
2026-05-06 19:52 36.20566 1.02618 42763 ft 410 kts 247°
2026-05-06 19:52 36.19460 0.99362 42881 ft 411 kts 247°
2026-05-06 19:52 36.17249 0.92872 42914 ft 412 kts 247°
2026-05-06 19:53 36.15022 0.86345 42907 ft 412 kts 247°
2026-05-06 19:53 36.12793 0.79827 42908 ft 412 kts 247°
2026-05-06 19:54 36.10932 0.74397 42914 ft 412 kts 247°
2026-05-06 19:54 36.08689 0.67866 42905 ft 413 kts 247°
2026-05-06 19:55 36.06441 0.61333 42912 ft 413 kts 247°
2026-05-06 19:55 36.04187 0.54796 42911 ft 413 kts 247°
2026-05-06 19:56 36.01931 0.48269 42909 ft 413 kts 247°
2026-05-06 19:56 35.99671 0.41745 42910 ft 413 kts 247°
2026-05-06 19:57 35.97407 0.35222 42914 ft 413 kts 247°
2026-05-06 19:57 35.95137 0.28695 42908 ft 414 kts 247°
2026-05-06 19:58 35.92877 0.22208 42908 ft 414 kts 247°
2026-05-06 19:58 35.90594 0.15672 42908 ft 414 kts 247°
2026-05-06 19:59 35.88306 0.09161 42908 ft 414 kts 246°
2026-05-06 19:59 35.85965 0.02671 42909 ft 414 kts 246°
2026-05-06 20:00 35.83617 -0.03809 42912 ft 414 kts 246°
2026-05-06 20:00 35.81281 -0.10285 42909 ft 413 kts 246°
2026-05-06 20:01 35.78949 -0.16761 42908 ft 413 kts 246°
2026-05-06 20:01 35.76631 -0.23188 42905 ft 413 kts 246°
2026-05-06 20:02 35.74293 -0.29658 42893 ft 413 kts 246°
2026-05-06 20:02 35.71959 -0.36104 42912 ft 411 kts 246°
2026-05-06 20:03 35.69622 -0.42540 42911 ft 411 kts 246°
2026-05-06 20:03 35.67285 -0.48967 42911 ft 411 kts 246°
2026-05-06 20:04 35.64945 -0.55386 42910 ft 411 kts 246°
2026-05-06 20:04 35.62613 -0.61768 42910 ft 411 kts 246°
2026-05-06 20:05 35.59714 -0.67827 42911 ft 413 kts 236°
2026-05-06 20:05 35.56249 -0.73474 42911 ft 414 kts 234°
2026-05-06 20:06 35.52689 -0.79038 42919 ft 414 kts 234°
2026-05-06 20:06 35.49125 -0.84591 42889 ft 414 kts 234°
2026-05-06 20:07 35.45584 -0.90127 42920 ft 411 kts 234°
2026-05-06 20:07 35.42062 -0.95641 42926 ft 410 kts 234°
2026-05-06 20:08 35.38541 -1.01149 42924 ft 410 kts 234°
2026-05-06 20:08 35.35014 -1.06656 42924 ft 410 kts 234°
2026-05-06 20:09 35.31509 -1.12120 42927 ft 410 kts 234°
2026-05-06 20:09 35.27978 -1.17614 42927 ft 411 kts 234°
2026-05-06 20:10 35.24435 -1.23120 42926 ft 412 kts 234°
2026-05-06 20:10 35.20893 -1.28616 42928 ft 410 kts 234°
2026-05-06 20:11 35.17357 -1.34091 42932 ft 409 kts 234°
2026-05-06 20:11 35.13825 -1.39552 42913 ft 409 kts 234°
2026-05-06 20:12 35.10288 -1.45014 42910 ft 409 kts 234°
2026-05-06 20:12 35.06749 -1.50469 42911 ft 409 kts 234°
2026-05-06 20:13 35.03234 -1.55880 42912 ft 410 kts 234°
2026-05-06 20:13 34.99687 -1.61331 42916 ft 410 kts 234°
2026-05-06 20:14 34.96136 -1.66779 42921 ft 410 kts 234°
2026-05-06 20:14 34.92590 -1.72212 42933 ft 409 kts 234°
2026-05-06 20:15 34.89049 -1.77629 42937 ft 409 kts 234°
2026-05-06 20:15 34.85504 -1.83043 42943 ft 409 kts 234°
2026-05-06 20:16 34.81921 -1.88421 42939 ft 409 kts 233°
2026-05-06 20:16 34.78461 -1.93847 42940 ft 408 kts 239°
2026-05-06 20:17 34.76028 -2.00053 42940 ft 408 kts 249°
2026-05-06 20:17 34.74227 -2.06603 42938 ft 408 kts 251°
2026-05-06 20:18 34.72533 -2.13196 42939 ft 408 kts 251°
2026-05-06 20:18 34.70831 -2.19781 42927 ft 407 kts 251°
2026-05-06 20:19 34.69117 -2.26315 42941 ft 405 kts 251°
2026-05-06 20:19 34.67394 -2.32824 42938 ft 405 kts 250°
2026-05-06 20:20 34.65671 -2.39316 42929 ft 406 kts 250°
2026-05-06 20:20 34.63930 -2.45864 42922 ft 407 kts 250°
2026-05-06 20:21 34.62189 -2.52399 42921 ft 407 kts 250°
2026-05-06 20:21 34.60445 -2.58931 42919 ft 407 kts 250°
2026-05-06 20:22 34.58687 -2.65462 42918 ft 407 kts 250°
2026-05-06 20:22 34.56894 -2.71982 42919 ft 408 kts 250°
2026-05-06 20:23 34.55097 -2.78531 42911 ft 409 kts 250°
2026-05-06 20:23 34.53330 -2.85056 42913 ft 410 kts 250°
2026-05-06 20:24 34.51552 -2.91625 42913 ft 409 kts 250°
2026-05-06 20:24 34.49770 -2.98187 42916 ft 409 kts 250°
2026-05-06 20:25 34.48093 -3.04345 42915 ft 410 kts 250°
2026-05-06 20:25 34.46302 -3.10904 42917 ft 410 kts 250°
2026-05-06 20:26 34.44504 -3.17470 42914 ft 411 kts 250°
2026-05-06 20:26 34.42713 -3.23997 42905 ft 410 kts 250°
2026-05-06 20:27 34.40910 -3.30551 42920 ft 410 kts 250°
2026-05-06 20:27 34.39106 -3.37096 42920 ft 410 kts 250°
2026-05-06 20:28 34.37298 -3.43639 42933 ft 410 kts 250°
2026-05-06 20:28 34.35486 -3.50204 42923 ft 413 kts 250°
2026-05-06 20:29 34.33699 -3.56813 42924 ft 414 kts 250°
2026-05-06 20:29 34.31914 -3.63429 42925 ft 414 kts 250°
2026-05-06 20:30 34.29234 -3.73298 42930 ft 413 kts 250°
2026-05-06 20:31 34.27432 -3.79909 42932 ft 414 kts 250°
2026-05-06 20:31 34.25621 -3.86529 42940 ft 416 kts 250°
2026-05-06 20:32 34.23796 -3.93186 42933 ft 418 kts 250°
2026-05-06 20:32 34.21961 -3.99865 42936 ft 418 kts 250°
2026-05-06 20:33 34.20125 -4.06531 42940 ft 418 kts 250°
2026-05-06 20:33 34.18284 -4.13199 42935 ft 418 kts 250°
2026-05-06 20:34 34.16444 -4.19824 42928 ft 418 kts 250°
2026-05-06 20:34 34.14542 -4.26465 42937 ft 418 kts 249°
2026-05-06 20:35 34.12627 -4.33076 42940 ft 416 kts 249°
2026-05-06 20:35 34.10727 -4.39660 42937 ft 415 kts 249°
2026-05-06 20:36 34.08822 -4.46245 42934 ft 415 kts 249°
2026-05-06 20:36 34.06917 -4.52819 42935 ft 415 kts 249°
2026-05-06 20:37 34.05011 -4.59387 42942 ft 416 kts 249°
2026-05-06 20:37 34.03089 -4.65992 42933 ft 418 kts 249°
2026-05-06 20:38 34.01157 -4.72620 42953 ft 419 kts 249°
2026-05-06 20:38 33.99233 -4.79205 42960 ft 419 kts 249°
2026-05-06 20:39 33.97294 -4.85825 42966 ft 419 kts 249°
2026-05-06 20:39 33.95347 -4.92459 42965 ft 419 kts 249°
2026-05-06 20:40 33.93409 -4.99089 42965 ft 420 kts 250°
2026-05-06 20:40 33.92114 -5.05922 42966 ft 422 kts 257°
2026-05-06 20:41 33.91108 -5.12885 42962 ft 422 kts 257°
2026-05-06 20:41 33.90114 -5.19849 42957 ft 422 kts 257°
2026-05-06 20:42 33.89119 -5.26812 42939 ft 422 kts 257°
2026-05-06 20:42 33.88289 -5.32599 42939 ft 422 kts 257°
2026-05-06 20:43 33.87122 -5.40704 42937 ft 423 kts 257°
2026-05-06 20:43 33.86276 -5.46553 42939 ft 424 kts 257°
2026-05-06 20:44 33.85263 -5.53531 42941 ft 424 kts 257°
2026-05-06 20:44 33.84252 -5.60471 42938 ft 424 kts 257°
2026-05-06 20:45 33.83230 -5.67451 42929 ft 423 kts 257°
2026-05-06 20:45 33.82204 -5.74433 42933 ft 425 kts 257°
2026-05-06 20:46 33.81167 -5.81460 42929 ft 427 kts 257°
2026-05-06 20:46 33.80127 -5.88488 42705 ft 426 kts 257°
2026-05-06 20:46 33.79606 -5.91996 42448 ft 426 kts 257°
2026-05-06 20:47 33.79084 -5.95497 42160 ft 424 kts 257°
2026-05-06 20:47 33.78566 -5.98976 41520 ft 422 kts 257°
2026-05-06 20:47 33.78045 -6.02456 40772 ft 423 kts 256°
2026-05-06 20:47 33.77524 -6.05930 40072 ft 422 kts 256°
2026-05-06 20:48 33.77011 -6.09352 39419 ft 421 kts 256°
2026-05-06 20:48 33.76489 -6.12819 38675 ft 421 kts 256°
2026-05-06 20:48 33.75967 -6.16278 37822 ft 421 kts 256°
2026-05-06 20:48 33.75447 -6.19729 36980 ft 419 kts 256°
2026-05-06 20:49 33.74927 -6.23169 36157 ft 417 kts 256°
2026-05-06 20:49 33.74409 -6.26592 35335 ft 416 kts 255°
2026-05-06 20:49 33.73889 -6.30014 34513 ft 415 kts 255°
2026-05-06 20:49 33.73372 -6.33415 33661 ft 413 kts 255°
2026-05-06 20:50 33.72855 -6.36828 32495 ft 417 kts 256°
2026-05-06 20:50 33.72336 -6.40276 31434 ft 421 kts 256°
2026-05-06 20:50 33.71814 -6.43747 30490 ft 423 kts 257°
2026-05-06 20:50 33.71295 -6.47188 29477 ft 426 kts 257°
2026-05-06 20:51 33.70766 -6.50698 28533 ft 427 kts 258°
2026-05-06 20:51 33.70241 -6.54182 27856 ft 421 kts 258°
2026-05-06 20:51 33.69722 -6.57627 27168 ft 416 kts 258°
2026-05-06 20:51 33.69202 -6.61030 26491 ft 412 kts 258°
2026-05-06 20:52 33.68671 -6.64395 25801 ft 408 kts 257°
2026-05-06 20:52 33.68143 -6.67729 25112 ft 405 kts 258°
2026-05-06 20:52 33.67620 -6.71042 24433 ft 401 kts 258°
2026-05-06 20:52 33.67102 -6.74321 23766 ft 398 kts 258°
2026-05-06 20:53 33.66586 -6.77578 23032 ft 395 kts 258°
2026-05-06 20:53 33.66075 -6.80795 22324 ft 390 kts 258°
2026-05-06 20:53 33.65411 -6.83932 21666 ft 385 kts 250°
2026-05-06 20:53 33.64231 -6.86792 21016 ft 383 kts 237°
2026-05-06 20:54 33.62493 -6.89207 20336 ft 385 kts 223°
2026-05-06 20:54 33.60283 -6.91027 19649 ft 387 kts 210°
2026-05-06 20:54 33.57765 -6.92212 18899 ft 390 kts 201°
2026-05-06 20:54 33.55190 -6.93202 18216 ft 387 kts 200°
2026-05-06 20:55 33.52636 -6.94179 17455 ft 383 kts 200°
2026-05-06 20:55 33.50146 -6.95143 16744 ft 379 kts 200°
2026-05-06 20:55 33.47647 -6.96118 16022 ft 375 kts 200°
2026-05-06 20:55 33.45177 -6.97086 15320 ft 371 kts 200°
2026-05-06 20:56 33.42733 -6.98048 14601 ft 368 kts 200°
2026-05-06 20:56 33.40311 -6.99001 13894 ft 365 kts 200°
2026-05-06 20:56 33.37907 -6.99948 13126 ft 362 kts 200°
2026-05-06 20:56 33.35549 -7.00919 12554 ft 353 kts 204°
2026-05-06 20:57 33.33423 -7.02236 12262 ft 335 kts 215°
2026-05-06 20:57 33.31689 -7.03990 12002 ft 319 kts 227°
2026-05-06 20:57 33.30234 -7.05907 11784 ft 304 kts 230°
2026-05-06 20:57 33.28885 -7.07783 11585 ft 291 kts 230°
2026-05-06 20:58 33.27600 -7.09593 11259 ft 282 kts 230°
2026-05-06 20:58 33.26342 -7.11378 10815 ft 280 kts 231°
2026-05-06 20:58 33.25111 -7.13129 10382 ft 278 kts 231°
2026-05-06 20:58 33.23891 -7.14865 9733 ft 272 kts 231°
2026-05-06 20:59 33.22677 -7.16598 9258 ft 270 kts 231°
2026-05-06 20:59 33.21479 -7.18306 8957 ft 267 kts 231°
2026-05-06 20:59 33.20282 -7.20013 8664 ft 267 kts 231°
2026-05-06 20:59 33.19089 -7.21714 8377 ft 267 kts 231°
2026-05-06 21:00 33.17899 -7.23408 8072 ft 266 kts 231°
2026-05-06 21:00 33.16711 -7.25100 7751 ft 265 kts 231°
2026-05-06 21:00 33.15605 -7.26852 7408 ft 264 kts 239°
2026-05-06 21:00 33.14957 -7.28893 7075 ft 264 kts 256°
2026-05-06 21:01 33.14596 -7.31042 6735 ft 263 kts 258°
2026-05-06 21:01 33.14278 -7.33165 6399 ft 263 kts 258°
2026-05-06 21:01 33.13949 -7.35338 6041 ft 263 kts 258°
2026-05-06 21:01 33.13623 -7.37459 5699 ft 262 kts 258°
2026-05-06 21:02 33.13291 -7.39591 5382 ft 261 kts 259°
2026-05-06 21:02 33.12956 -7.41729 5049 ft 264 kts 259°
2026-05-06 21:02 33.12624 -7.43843 4925 ft 251 kts 259°
2026-05-06 21:02 33.12311 -7.45836 4839 ft 237 kts 259°
2026-05-06 21:03 33.12035 -7.47727 4727 ft 226 kts 263°
2026-05-06 21:03 33.12183 -7.49511 4630 ft 212 kts 291°
2026-05-06 21:03 33.13019 -7.50873 4525 ft 198 kts 323°
2026-05-06 21:03 33.14216 -7.51534 4439 ft 185 kts 345°
2026-05-06 21:04 33.15409 -7.51906 4400 ft 172 kts 345°
2026-05-06 21:04 33.16513 -7.52272 4341 ft 160 kts 345°
2026-05-06 21:04 33.17581 -7.52638 4241 ft 159 kts 345°
2026-05-06 21:04 33.18636 -7.53010 4069 ft 155 kts 345°
2026-05-06 21:05 33.19656 -7.53361 3835 ft 151 kts 345°
2026-05-06 21:05 33.20651 -7.53700 3628 ft 147 kts 345°
2026-05-06 21:05 33.21629 -7.54034 3425 ft 145 kts 346°
2026-05-06 21:05 33.22587 -7.54362 3223 ft 141 kts 346°
2026-05-06 21:06 33.23512 -7.54678 3034 ft 136 kts 346°
2026-05-06 21:06 33.24410 -7.54985 2855 ft 132 kts 346°
2026-05-06 21:06 33.25277 -7.55282 2684 ft 127 kts 346°
2026-05-06 21:06 33.26112 -7.55569 2511 ft 123 kts 347°
2026-05-06 21:07 33.26920 -7.55845 2353 ft 120 kts 346°
2026-05-06 21:07 33.27721 -7.56119 2181 ft 120 kts 347°
2026-05-06 21:07 33.28521 -7.56393 2021 ft 120 kts 346°
2026-05-06 21:07 33.29327 -7.56669 1871 ft 121 kts 346°
2026-05-06 21:08 33.30135 -7.56946 1701 ft 120 kts 345°
2026-05-06 21:08 33.30933 -7.57220 1526 ft 118 kts 345°
2026-05-06 21:08 33.31718 -7.57488 1375 ft 117 kts 344°
2026-05-06 21:08 33.32500 -7.57757 1219 ft 117 kts 344°
2026-05-06 21:09 33.33274 -7.58022 1064 ft 117 kts 345°
2026-05-06 21:09 33.34062 -7.58306 899 ft 119 kts 343°
2026-05-06 21:09 33.34847 -7.58558 737 ft 116 kts 343°
2026-05-06 21:09 33.35630 -7.58818 664 ft 116 kts 344°
2026-05-06 21:10 33.36339 -7.59065 659 ft 80 kts 345°
2026-05-06 21:10 33.36603 -7.59054 658 ft 0 kts 11°
2026-05-06 21:10 33.36625 -7.59047 658 ft 15 kts 14°
2026-05-06 21:11 33.36735 -7.59011 659 ft 13 kts 25°
2026-05-06 21:11 33.36770 -7.58961 659 ft 9 kts 66°
2026-05-06 21:11 33.36794 -7.58869 658 ft 14 kts 72°
2026-05-06 21:11 33.36825 -7.58744 658 ft 17 kts 74°
2026-05-06 21:12 33.36851 -7.58638 659 ft 9 kts 73°
2026-05-06 21:12 33.36855 -7.58621 659 ft 0 kts 73°
2026-05-06 21:12 33.36856 -7.58618 659 ft 2 kts 73°
2026-05-06 21:12 33.36863 -7.58588 659 ft 6 kts 74°
2026-05-06 21:13 33.36877 -7.58523 659 ft 10 kts 76°
2026-05-06 21:13 33.36899 -7.58428 659 ft 14 kts 74°
2026-05-06 21:13 33.36910 -7.58380 659 ft 0 kts 74°
2026-05-06 21:13 33.36917 -7.58355 659 ft 20 kts 73°
2026-05-06 21:14 33.36933 -7.58285 659 ft 5 kts 73°
2026-05-06 21:14 33.36936 -7.58273 659 ft 0 kts 73°
2026-05-06 21:14 33.36959 -7.58232 659 ft 4 kts 32°
2026-05-06 21:14 33.36998 -7.58236 659 ft 7 kts 341°
2026-05-06 21:15 33.37051 -7.58245 659 ft 6 kts 11°
2026-05-06 21:15 33.37076 -7.58214 659 ft 3 kts 72°
2026-05-06 21:15 33.37081 -7.58202 659 ft 1 kts 54°
2026-05-06 21:15 33.37088 -7.58195 659 ft 2 kts 40°
2026-05-06 21:16 33.37102 -7.58173 659 ft 5 kts 64°
2026-05-06 21:16 33.37104 -7.58167 659 ft 0 kts 67°